CAPE
0 0 0 0 1 14 31 64 44 379 681 282 289 138 9 90 123 140 604 477 486 653 892 922 1222 949 365 372 800 999 903 863 1176 1257 1311 1469 1635 1752 1742 1660 1537 1083 802 701 609 541 505 471 453
0 0 0 0 0 0 1 64 282 246 237 369 261 124 67 355 1080 1038 642 414 422 411 513 730 1137 544 494 778 868 1138 987 819 906 1098 1169 1381 1680 1721 1372 1522 1365 758 509 418 345 327 363 396 469
0 0 0 0 0 18 28 86 147 204 137 97 123 259 238 1001 1050 1056 649 375 264 284 462 609 1036 1172 747 831 791 1103 1076 986 946 1450 1239 1211 1313 1440 1572 1355 1201 598 401 323 303 324 407 516 606
0 0 0 0 0 0 0 36 174 290 299 47 112 58 60 1145 1267 896 716 446 250 312 483 905 964 1158 813 753 717 872 1149 1126 1005 1036 1221 1215 1230 1257 1316 1113 899 564 392 417 415 504 622 685 943
0 0 0 0 175 346 156 19 229 46 26 0 9 176 1000 1351 1071 981 828 540 397 457 566 636 908 1013 839 780 745 816 1110 1166 1181 1228 958 1125 1151 1129 1070 884 743 693 636 506 523 745 1114 1147 1095
0 0 0 0 240 293 181 175 172 233 294 25 25 153 481 1162 1144 1187 978 616 445 455 406 576 940 976 1163 940 970 1119 1324 1226 1331 1399 1174 1162 1170 1165 1111 1050 923 864 811 736 721 1205 1213 1215 1135
0 0 0 0 181 320 255 50 0 20 241 675 419 53 104 1217 1278 1066 831 682 568 448 321 308 567 553 868 1001 977 925 1163 1296 1470 1461 1420 1288 1218 1252 1228 1415 1241 1334 1524 1408 1268 1285 1273 1263 1265
0 0 0 0 6 161 206 92 7 23 284 354 637 58 140 978 1142 801 816 751 608 526 338 156 221 355 568 555 1009 1042 1030 1125 1463 1366 1368 1478 1348 1373 1384 1574 1462 1489 1741 1664 1534 1441 1430 1390 1250
0 0 0 0 271 128 57 173 367 2 19 2 33 166 449 1125 943 825 724 636 751 688 402 119 85 70 158 280 633 1065 1122 1142 1161 1214 1413 1311 785 527 819 1113 1591 1676 1743 1670 1787 1718 1708 1664 1638
0 0 170 360 334 312 622 273 87 20 0 25 102 0 10 0 0 2 8 0 0 0 0 0 47 115 136 192 354 531 450 584 847 825 660 818 428 247 217 709 1501 1871 1893 2004 2060 2027 2140 2066 863
0 0 427 623 600 105 32 200 551 64 270 176 0 0 0 0 0 0 0 0 0 0 0 0 0 0 47 79 244 177 208 304 318 344 273 169 311 153 174 227 387 805 1157 1317 1123 829 541 275 162
0 0 705 502 372 194 476 446 133 94 2 0 0 0 0 0 0 0 0 0 0 0 0 0 0 0 0 0 185 176 54 82 100 87 94 119 218 423 163 243 147 159 433 670 670 450 215 92 85
0 1 630 616 364 392 62 18 0 0 0 0 0 0 0 0 0 0 0 0 0 0 0 0 0 0 0 0 0 103 248 17 0 11 0 65 216 194 284 105 112 66 10 38 49 1 0 0 138
0 43 213 292 27 0 0 1 0 0 0 0 0 0 0 0 0 0 0 0 0 0 0 0 0 0 0 0 0 22 48 21 0 0 0 0 0 4 390 59 57 209 434 309 177 137 14 0 0
0 0 0 0 0 0 0 0 0 0 0 0 0 0 0 0 0 0 0 0 0 0 0 0 0 0 0 0 0 0 0 0 0 0 0 0 0 0 0 0 0 0 0 0 0 0 76 306 508
0 0 0 0 0 0 0 0 0 0 0 0 0 0 0 0 0 0 0 0 0 0 0 0 0 0 0 0 0 0 0 0 0 0 0 0 0 0 0 0 0 0 0 0 0 0 0 0 225
0 0 0 0 0 0 0 0 0 0 0 0 0 0 0 0 0 0 0 0 0 0 0 0 0 0 0 0 0 0 0 0 0 0 0 0 0 0 0 0 0 0 0 0 0 0 0 0 0
0 0 0 0 0 0 0 0 0 0 0 0 0 0 0 0 0 0 0 0 0 0 0 0 0 0 0 0 0 0 0 0 0 0 0 0 0 0 0 0 0 0 0 0 0 0 0 2 0
0 0 0 0 0 0 0 0 0 0 0 0 0 0 0 0 0 0 0 0 0 0 0 0 0 0 0 0 0 0 0 0 0 0 0 0 0 0 0 0 0 0 0 0 0 0 0 0 0
0 0 0 0 0 0 0 0 0 0 0 0 0 0 0 0 0 0 0 0 0 0 0 0 0 0 0 0 0 0 0 0 0 0 0 0 0 0 0 0 0 0 0 0 0 0 2 3 0
0 0 0 0 0 0 0 0 0 0 0 0 0 0 0 0 0 0 0 0 0 0 0 0 0 0 0 0 0 0 0 0 0 0 0 0 0 0 0 0 0 0 0 0 0 0 0 2 0
0 0 0 0 0 0 0 0 0 0 0 0 0 0 0 0 0 0 0 0 0 0 0 0 0 0 0 0 0 0 0 0 0 0 0 0 0 0 0 0 0 0 0 0 0 0 0 0 2
0 0 0 0 0 0 0 0 0 0 0 0 0 0 0 0 0 0 0 0 0 0 0 0 0 0 0 0 0 0 0 0 0 0 0 0 0 0 0 0 0 0 0 0 0 0 0 0 0
0 0 0 0 0 0 0 0 0 0 0 0 0 0 0 0 0 0 0 0 0 0 0 0 0 0 0 0 0 0 0 0 0 0 0 0 0 0 0 0 0 0 0 0 0 0 0 0 0
0 0 0 0 0 0 0 0 0 0 0 0 0 0 0 0 0 0 0 0 0 0 0 0 0 0 0 0 0 0 0 0 0 0 0 0 0 0 0 0 0 0 0 0 0 0 0 0 0
0 0 0 0 0 0 0 0 0 0 0 0 0 0 0 0 0 0 0 0 0 0 0 0 0 0 0 0 0 0 0 0 0 0 0 0 0 0 0 0 0 0 0 0 0 0 0 0 0
0 0 0 0 0 0 0 0 0 0 0 0 0 0 0 0 0 0 0 0 0 0 0 0 0 0 0 0 0 0 0 0 0 0 0 0 0 0 0 0 0 0 0 0 0 0 0 0 0
0 0 0 0 0 7 0 0 0 0 0 0 0 0 0 0 0 0 0 0 0 0 0 0 0 0 0 0 0 0 0 0 0 0 0 0 0 0 0 0 0 0 0 0 0 0 0 0 0
0 0 0 0 0 0 0 0 0 0 0 0 0 0 0 0 0 0 0 0 0 0 0 0 0 0 0 0 0 0 0 0 0 0 0 0 0 0 0 0 0 0 0 0 0 0 0 0 0
9 0 0 0 0 0 0 0 0 0 0 0 0 0 0 0 0 0 0 0 0 0 0 0 0 0 0 0 0 0 0 0 0 0 0 0 0 0 0 0 0 0 0 0 0 0 1 0 0
CIN
-0 -0 -0 -0 -21 -186 -230 -158 -161 -70 -109 -211 -208 -183 -272 -276 -166 -212 -287 -285 -229 -161 -143 -118 -70 -103 -197 -181 -92 -54 -54 -53 -20 -12 -3 -0 -0 -0 -0 -0 -0 -11 -29 -47 -63 -66 -80 -73 -67
-0 -0 -0 -0 -0 -61 -74 -110 -102 -131 -193 -149 -201 -226 -244 -228 -237 -207 -243 -284 -218 -217 -229 -159 -98 -189 -193 -132 -105 -58 -65 -74 -55 -30 -13 -2 -0 -0 -0 -0 -0 -33 -66 -93 -109 -109 -113 -105 -85
-0 -0 -0 -0 -0 -77 -69 -41 -139 -172 -191 -187 -185 -200 -240 -201 -180 -150 -223 -271 -276 -293 -266 -207 -127 -107 -159 -135 -121 -69 -68 -67 -56 -11 -13 -6 -1 -0 -0 -4 -11 -59 -98 -123 -129 -130 -130 -125 -101
-0 -0 -0 -0 -0 -0 -0 -103 -107 -133 -218 -285 -253 -260 -301 -106 -134 -182 -157 -218 -292 -303 -269 -173 -147 -113 -149 -150 -138 -104 -70 -65 -56 -42 -12 -4 -2 -6 -11 -33 -56 -94 -119 -116 -138 -121 -132 -129 -91
-0 -0 -0 -0 -94 -142 -214 -185 -91 -165 -285 -0 -301 -296 -89 -83 -161 -169 -168 -232 -279 -281 -252 -224 -168 -143 -152 -148 -138 -122 -80 -68 -61 -37 -50 -27 -26 -26 -42 -63 -81 -91 -101 -131 -134 -125 -121 -113 -102
-0 -0 -0 -0 -66 -84 -189 -176 -271 -130 -217 -258 -196 -217 -133 -107 -167 -147 -167 -229 -289 -315 -313 -244 -163 -146 -119 -127 -116 -96 -70 -76 -58 -42 -55 -56 -64 -67 -67 -70 -89 -108 -113 -138 -146 -121 -139 -137 -118
-0 -0 -0 -0 -127 -82 -135 -309 -0 -331 -306 -221 -239 -130 -225 -88 -121 -159 -192 -256 -281 -315 -337 -323 -245 -229 -156 -126 -117 -124 -97 -85 -66 -60 -68 -81 -88 -83 -87 -74 -97 -91 -84 -100 -132 -130 -146 -159 -122
-0 -0 -0 -0 -98 -129 -178 -417 -360 -342 -334 -382 -224 -149 -181 -92 -124 -192 -201 -222 -259 -272 -318 -377 -343 -293 -234 -230 -145 -138 -142 -125 -94 -98 -98 -95 -97 -92 -92 -85 -117 -111 -95 -106 -120 -132 -148 -166 -161
-0 -0 -0 -0 -119 -212 -349 -426 -374 -156 -509 -334 -242 -163 -116 -93 -133 -196 -196 -177 -137 -140 -219 -355 -391 -405 -334 -295 -211 -150 -146 -146 -137 -127 -105 -119 -187 -228 -181 -151 -111 -109 -118 -120 -116 -126 -142 -163 -166
-0 -0 -123 -177 -192 -231 -177 -313 -553 -453 -0 -211 -275 -0 -490 -0 -0 -74 -56 -0 -0 -0 -0 -0 -203 -327 -325 -271 -246 -212 -249 -238 -200 -205 -242 -208 -275 -327 -275 -210 -125 -107 -114 -98 -109 -126 -137 -142 -259
-0 -0 -152 -133 -214 -303 -333 -348 -244 -358 -200 -254 -0 -0 -0 -0 -0 -0 -0 -0 -0 -0 -0 -0 -0 -0 -324 -327 -301 -324 -314 -286 -311 -311 -334 -372 -289 -352 -327 -296 -260 -198 -178 -167 -189 -216 -250 -293 -336
-0 -0 -110 -165 -223 -301 -272 -298 -313 -335 -201 -0 -0 -0 -0 -0 -0 -0 -0 -0 -0 -0 -0 -0 -0 -0 -0 -0 -278 -330 -401 -385 -385 -400 -409 -396 -336 -260 -298 -286 -318 -300 -281 -227 -259 -292 -296 -357 -358
-0 -8 -117 -126 -206 -260 -220 -225 -0 -0 -0 -0 -0 -0 -0 -0 -0 -0 -0 -0 -0 -0 -0 -0 -0 -0 -0 -0 -0 -394 -312 -417 -0 -191 -0 -282 -333 -337 -302 -339 -373 -448 -508 -473 -240 -40 -0 -0 -279
-0 -176 -196 -209 -126 -0 -0 -60 -0 -0 -0 -0 -0 -0 -0 -0 -0 -0 -0 -0 -0 -0 -0 -0 -0 -0 -0 -0 -0 -613 -540 -178 -0 -0 -0 -0 -0 -148 -301 -512 -516 -419 -327 -381 -457 -481 -301 -0 -0
-0 -13 -0 -0 -0 -0 -0 -0 -0 -0 -0 -0 -0 -0 -0 -0 -0 -0 -0 -0 -0 -0 -0 -0 -0 -0 -0 -0 -0 -0 -0 -0 -0 -0 -0 -0 -0 -0 -0 -0 -0 -0 -0 -0 -0 -0 -557 -419 -324
-0 -0 -0 -0 -0 -0 -0 -0 -0 -0 -0 -0 -0 -0 -0 -0 -0 -0 -0 -0 -0 -0 -0 -0 -0 -0 -0 -0 -0 -0 -0 -0 -0 -0 -0 -0 -0 -0 -0 -0 -0 -0 -0 -0 -0 -0 -0 -0 -433
-0 -0 -0 -0 -0 -0 -0 -0 -0 -0 -0 -0 -0 -0 -0 -0 -0 -0 -0 -0 -0 -0 -0 -0 -0 -0 -0 -0 -0 -0 -0 -0 -0 -0 -0 -0 -0 -0 -0 -0 -0 -0 -0 -0 -0 -0 -0 -0 -0
-0 -0 -0 -0 -0 -0 -0 -0 -0 -0 -0 -0 -0 -0 -0 -0 -0 -0 -0 -0 -0 -0 -0 -0 -0 -0 -0 -0 -0 -0 -0 -0 -0 -0 -0 -0 -0 -0 -0 -0 -0 -0 -0 -0 -0 -0 -0 -1 -0
-0 -0 -0 -0 -0 -0 -0 -0 -0 -0 -0 -0 -0 -0 -0 -0 -0 -0 -0 -0 -0 -0 -0 -0 -0 -0 -0 -0 -0 -0 -0 -0 -0 -0 -0 -0 -0 -0 -0 -0 -0 -0 -0 -0 -0 -0 -0 -0 -0
-0 -0 -0 -0 -0 -0 -0 -0 -0 -0 -0 -0 -0 -0 -0 -0 -0 -0 -0 -0 -0 -0 -0 -0 -0 -0 -0 -0 -0 -0 -0 -0 -0 -0 -0 -0 -0 -0 -0 -0 -0 -0 -0 -0 -0 -0 -0 -1 -1
-0 -0 -0 -0 -0 -0 -0 -0 -0 -0 -0 -0 -0 -0 -0 -0 -0 -0 -0 -0 -0 -0 -0 -0 -0 -0 -0 -0 -0 -0 -0 -0 -0 -0 -0 -0 -0 -0 -0 -0 -0 -0 -0 -0 -0 -0 -0 -0 -0
-0 -0 -0 -0 -0 -0 -0 -0 -0 -0 -0 -0 -0 -0 -0 -0 -0 -0 -0 -0 -0 -0 -0 -0 -0 -0 -0 -0 -0 -0 -0 -0 -0 -0 -0 -0 -0 -0 -0 -0 -0 -0 -0 -0 -0 -0 -0 -0 -0
-0 -0 -0 -0 -0 -0 -0 -0 -0 -0 -0 -0 -0 -0 -0 -0 -0 -0 -0 -0 -0 -0 -0 -0 -0 -0 -0 -0 -0 -0 -0 -0 -0 -0 -0 -0 -0 -0 -0 -0 -0 -0 -0 -0 -0 -0 -0 -0 -0
-0 -0 -0 -0 -0 -0 -0 -0 -0 -0 -0 -0 -0 -0 -0 -0 -0 -0 -0 -0 -0 -0 -0 -0 -0 -0 -0 -0 -0 -0 -0 -0 -0 -0 -0 -0 -0 -0 -0 -0 -0 -0 -0 -0 -0 -0 -0 -0 -0
-0 -0 -0 -0 -0 -0 -0 -0 -0 -0 -0 -0 -0 -0 -0 -0 -0 -0 -0 -0 -0 -0 -0 -0 -0 -0 -0 -0 -0 -0 -0 -0 -0 -0 -0 -0 -0 -0 -0 -0 -0 -0 -0 -0 -0 -0 -0 -0 -0
-0 -0 -0 -0 -0 -0 -0 -0 -0 -0 -0 -0 -0 -0 -0 -0 -0 -0 -0 -0 -0 -0 -0 -0 -0 -0 -0 -0 -0 -0 -0 -0 -0 -0 -0 -0 -0 -0 -0 -0 -0 -0 -0 -0 -0 -0 -0 -0 -0
-2 -0 -0 -0 -0 -0 -0 -0 -0 -0 -0 -0 -0 -0 -0 -0 -0 -0 -0 -0 -0 -0 -0 -0 -0 -0 -0 -0 -0 -0 -0 -0 -0 -0 -0 -0 -0 -0 -0 -0 -0 -0 -0 -0 -0 -0 -0 -0 -0
-0 -0 -0 -0 -0 -16 -0 -0 -0 -0 -0 -0 -0 -0 -0 -0 -0 -0 -0 -0 -0 -0 -0 -0 -0 -0 -0 -0 -0 -0 -0 -0 -0 -0 -0 -0 -0 -0 -0 -0 -0 -0 -0 -0 -0 -0 -0 -0 -0
-0 -0 -0 -0 -0 -0 -0 -0 -0 -0 -0 -0 -0 -0 -0 -0 -0 -0 -0 -0 -0 -0 -0 -0 -0 -0 -0 -0 -0 -0 -0 -0 -0 -0 -0 -0 -0 -0 -0 -0 -0 -0 -0 -0 -0 -0 -0 -0 -0
-259 -0 -0 -0 -0 -0 -0 -0 -0 -0 -0 -0 -0 -0 -0 -0 -0 -0 -0 -0 -0 -0 -0 -0 -0 -0 -0 -0 -0 -0 -0 -0 -0 -0 -0 -0 -0 -0 -0 -0 -0 -0 -0 -0 -0 -0 -1 -0 -0
Wind_Speed
3 6 2 3 4 5 7 2 4 10 7 2 5 8 12 12 2 3 6 10 14 10 10 12 15 16 16 16 16 15 13 13 14 14 13 12 11 13 13 11 10 10 9 8 8 8 7 7 7
2 5 2 2 6 3 4 3 12 12 6 7 16 11 10 6 9 13 7 12 10 9 7 7 16 17 16 16 15 14 13 13 13 12 12 11 11 11 10 8 7 8 7 6 6 5 5 5 5
2 2 3 5 4 5 5 5 13 13 10 4 5 5 5 5 15 7 12 15 10 8 8 10 15 15 16 16 15 13 12 11 11 12 11 10 10 9 7 6 6 5 4 3 3 2 2 3 4
2 4 5 5 4 5 6 22 8 8 2 6 9 8 6 9 6 11 16 13 11 8 7 13 15 14 15 15 14 13 11 11 10 9 9 8 7 6 4 4 4 3 1 1 1 3 4 4 4
3 4 4 3 1 6 15 15 6 11 7 12 11 10 7 11 21 21 18 15 13 8 6 8 14 14 14 14 13 12 10 9 10 8 7 5 4 2 2 2 1 1 2 3 4 6 6 6 3
4 3 5 2 6 9 8 3 22 15 15 17 15 16 6 19 21 16 16 13 11 12 7 7 13 13 12 12 12 10 9 7 8 8 7 6 5 5 5 5 5 5 7 7 7 8 9 8 4
6 3 4 8 10 10 4 2 4 13 11 5 7 10 8 17 17 16 14 13 11 10 7 6 6 10 12 12 10 9 8 7 8 7 8 7 7 7 7 7 9 10 9 10 9 9 11 10 5
5 5 5 2 11 8 9 6 6 15 7 3 5 6 5 18 18 15 13 11 8 6 5 5 5 6 6 7 13 12 11 10 9 9 9 9 9 9 8 10 11 12 12 12 12 11 12 11 7
3 3 3 1 10 8 13 6 2 6 7 3 5 6 14 18 15 13 11 8 6 5 5 3 3 1 2 2 7 12 14 12 11 9 9 7 4 5 7 10 13 14 14 14 13 12 12 11 11
5 4 4 3 22 16 12 10 11 8 6 4 7 19 19 20 16 17 15 11 11 12 9 8 3 2 4 4 3 3 4 4 5 6 6 5 5 4 7 10 14 15 16 14 13 12 12 10 5
3 5 11 12 16 18 14 4 3 15 5 5 13 13 15 20 16 17 13 13 9 8 9 10 9 6 3 2 3 1 3 3 3 5 5 5 4 4 4 4 3 3 7 5 6 5 4 5 5
0 7 10 16 14 12 10 9 15 13 9 14 14 13 16 17 16 13 11 11 10 10 11 9 7 6 7 5 3 4 3 4 4 5 6 4 3 4 3 2 3 3 3 5 4 4 6 6 7
5 6 18 18 10 16 17 12 15 14 13 14 16 17 15 14 14 13 10 10 8 8 7 7 8 7 6 5 4 4 5 5 6 5 8 5 4 4 4 4 3 3 3 3 5 5 5 5 7
2 15 21 17 16 15 23 10 6 6 13 14 16 15 13 13 11 11 10 8 9 8 9 7 8 8 5 5 5 5 6 7 8 8 7 9 7 7 5 6 7 7 7 6 5 5 4 4 4
7 18 12 16 12 11 16 6 8 12 15 14 14 11 12 11 11 11 8 9 7 6 7 10 9 9 9 7 6 7 7 7 7 6 9 11 10 8 8 7 7 8 8 9 8 9 8 8 8
8 8 9 12 16 12 5 5 8 11 15 13 11 10 9 11 11 9 9 8 8 7 10 9 9 9 8 7 6 6 6 7 7 7 7 10 11 10 9 8 9 8 7 7 8 8 9 8 7
4 8 5 10 11 9 4 8 14 11 13 13 12 10 9 9 10 8 9 8 8 7 7 9 9 9 7 7 5 6 7 8 6 7 7 7 10 11 10 8 8 8 7 8 7 7 7 7 9
4 2 4 12 16 5 8 7 18 15 14 12 10 9 7 9 9 9 9 9 7 7 7 7 7 9 7 5 4 6 7 7 8 8 7 10 9 12 8 8 8 7 7 8 8 9 8 4 9
5 3 6 9 10 7 7 13 22 17 13 13 10 10 9 9 7 9 9 8 8 7 8 7 8 8 6 4 3 5 6 5 7 8 13 13 12 13 12 8 10 9 9 9 10 8 9 7 11
7 7 7 7 9 8 11 12 9 16 15 16 16 13 13 10 8 8 8 8 7 6 6 7 7 7 6 4 3 3 3 4 3 6 11 12 13 13 11 11 10 11 8 10 11 12 8 4 8
12 7 6 7 9 8 15 3 9 6 6 13 13 15 14 14 12 9 9 7 6 6 5 6 5 6 6 7 4 4 4 5 7 7 8 10 13 12 12 12 10 9 8 8 8 9 10 7 5
10 12 14 11 7 8 6 7 8 8 10 13 15 14 14 13 10 9 10 6 7 5 5 5 6 6 7 7 6 7 6 7 4 4 6 7 12 12 12 11 10 9 8 9 9 8 7 6 7
13 18 9 11 7 7 5 5 7 13 7 13 14 15 14 13 13 12 11 9 7 6 5 4 6 6 6 7 7 6 7 4 4 4 7 7 6 10 10 10 9 9 7 9 10 10 9 7 6
10 6 3 3 5 3 11 10 5 17 27 15 15 17 17 15 12 10 10 9 7 5 5 5 5 4 6 6 8 7 7 6 4 5 4 4 3 4 5 6 5 5 4 5 6 5 6 5 4
5 5 3 5 1 7 11 7 6 12 11 21 22 19 16 14 12 13 12 9 7 7 6 5 5 4 6 7 7 7 6 6 6 4 3 4 3 3 5 4 5 3 4 4 4 4 4 4 4
10 11 9 9 7 9 4 6 3 14 13 19 18 17 15 12 11 12 10 9 9 7 7 6 5 4 6 6 6 5 6 4 4 5 3 3 3 2 3 4 4 5 5 5 4 2 3 6 4
6 4 11 6 2 2 4 3 9 10 19 23 21 16 14 13 13 12 9 9 8 7 6 7 5 4 6 6 5 5 6 6 5 5 4 3 4 4 3 3 4 5 6 6 6 4 7 9 7
4 2 0 3 6 6 2 3 8 13 18 18 16 18 15 13 13 10 7 7 5 6 6 7 6 5 6 7 5 4 5 6 6 5 5 6 5 6 5 2 4 5 6 5 5 4 5 7 6
7 5 6 4 4 3 2 5 4 13 18 18 18 16 15 13 12 11 8 7 7 4 6 7 6 5 5 5 4 5 5 6 6 6 5 5 5 6 6 4 4 4 6 6 5 4 5 6 8
6 2 4 5 5 2 3 4 4 8 8 9 10 11 12 11 9 11 12 9 7 5 6 7 4 5 5 5 4 5 6 5 6 6 6 5 6 5 6 5 3 4 4 5 5 6 7 7 8
Wind_Direction
164 161 145 99 67 39 297 337 255 30 28 351 116 72 98 38 76 159 73 118 125 138 131 130 125 122 121 123 121 118 117 112 109 103 98 97 94 89 87 87 89 91 87 78 69 58 52 55 66
155 148 79 73 99 123 296 354 67 61 33 4 59 54 43 88 56 113 96 120 130 134 113 123 128 128 129 129 125 122 118 113 112 110 106 100 95 95 94 92 92 96 93 84 70 49 37 24 50
203 232 98 121 110 174 167 30 121 85 48 100 64 14 55 103 124 120 120 134 134 123 120 133 132 132 132 129 123 121 120 118 115 107 111 108 103 99 100 101 97 98 95 90 76 42 7 327 15
145 16 15 64 300 234 220 160 178 133 158 91 135 59 55 131 108 124 137 130 131 124 124 133 135 131 132 128 126 124 122 118 112 107 104 104 106 107 113 120 119 113 80 6 18 310 292 295 3
47 73 58 57 304 31 36 112 55 103 97 77 83 94 72 72 117 132 137 141 140 129 132 132 137 136 133 132 130 129 129 131 136 120 114 122 124 136 166 206 216 259 270 278 293 286 283 295 325
4 90 66 101 81 26 50 342 117 110 105 105 89 92 94 134 128 140 139 143 144 137 140 144 141 138 137 138 135 131 129 135 130 133 151 168 180 198 221 246 250 245 254 254 259 271 279 287 313
127 93 217 158 129 110 124 179 212 117 130 81 113 100 127 137 138 142 140 138 138 136 142 143 139 145 146 144 142 143 147 158 155 168 176 193 210 222 232 249 257 259 256 262 261 267 279 283 319
115 105 304 358 131 132 165 163 150 103 74 351 324 143 145 144 147 135 133 125 123 142 144 143 148 152 155 165 163 169 175 184 183 195 199 205 226 235 246 252 255 258 259 261 263 265 270 283 279
120 63 305 183 113 134 153 157 286 40 86 360 12 84 135 143 130 131 119 102 100 101 71 84 133 172 205 186 185 183 191 194 201 211 224 234 240 249 259 260 263 263 261 258 263 271 276 280 278
106 110 339 56 124 151 164 166 157 137 151 175 83 72 75 79 75 79 71 62 57 55 59 34 345 200 218 199 223 258 230 212 209 213 218 229 236 236 253 253 253 257 262 274 269 273 277 282 276
153 149 125 114 137 141 141 89 19 138 116 24 114 92 77 80 69 70 70 64 47 34 50 25 25 12 11 314 170 243 266 274 253 249 241 237 243 237 242 269 288 279 265 257 269 281 267 264 257
98 123 134 160 166 147 119 127 72 69 84 93 85 82 79 73 74 67 62 60 49 38 36 31 21 16 17 20 18 262 232 226 233 236 247 245 244 267 247 229 276 283 257 272 261 275 285 274 266
178 82 133 145 157 111 106 82 105 87 84 83 85 70 67 76 77 73 64 58 50 44 33 26 23 25 17 18 358 5 16 38 42 24 30 353 324 316 328 343 15 4 336 311 312 300 293 286 288
186 125 135 144 145 127 112 125 88 114 103 82 74 75 72 68 74 76 68 61 48 32 22 16 27 16 13 24 16 47 62 42 48 42 31 28 20 9 9 35 29 13 11 11 8 2 336 269 264
86 110 119 148 139 120 102 34 140 143 112 100 94 88 80 78 68 69 67 58 47 32 26 24 24 8 17 20 27 46 52 64 59 46 34 35 30 22 25 32 28 11 7 9 10 6 358 355 351
101 110 136 224 160 167 99 194 170 150 123 124 119 109 102 98 95 82 76 62 42 37 25 17 16 17 15 16 29 56 49 58 48 44 44 40 40 32 38 35 19 6 16 19 12 7 355 349 355
32 162 171 191 237 150 101 138 184 163 143 146 142 135 121 107 94 86 80 70 50 42 29 17 9 12 8 14 25 45 57 63 38 42 37 23 40 43 50 37 24 13 17 23 14 12 4 340 350
246 171 151 168 210 166 137 186 165 170 158 156 144 128 119 112 112 113 95 77 61 41 35 20 12 12 357 359 29 48 55 58 49 46 34 24 43 42 47 41 28 19 25 22 19 14 4 2 345
247 240 254 226 192 101 165 157 174 170 159 154 148 137 132 121 111 102 93 82 68 38 34 23 20 3 10 5 18 43 58 47 47 43 39 51 44 43 36 36 30 20 31 22 16 3 7 4 357
248 254 259 277 187 103 160 161 154 171 170 161 150 147 142 132 119 106 94 85 77 63 38 31 21 19 15 12 1 48 78 41 46 45 47 54 45 40 41 35 29 26 21 21 19 13 5 357 359
254 220 228 199 88 49 109 25 187 188 141 158 157 148 145 143 138 131 117 107 93 75 57 47 23 16 26 22 25 29 42 40 42 32 45 48 47 44 40 36 32 25 27 20 13 13 16 4 357
252 242 239 157 130 176 191 209 216 193 177 170 158 151 144 142 132 132 132 124 120 112 88 67 53 36 39 32 48 59 67 66 36 38 49 51 47 44 41 37 32 27 26 25 15 12 13 6 17
239 249 192 171 156 114 210 97 260 170 198 183 157 147 147 144 141 142 142 139 134 129 118 100 80 67 54 53 57 62 68 59 45 41 48 38 47 46 44 36 28 26 25 22 17 15 16 23 21
240 238 121 75 128 173 212 181 232 181 202 151 151 153 149 146 145 135 132 135 135 138 121 112 96 85 77 69 65 78 82 70 70 53 54 34 45 43 40 45 41 33 29 29 20 18 17 11 6
189 80 273 292 106 217 196 206 215 205 164 168 157 151 149 147 141 128 130 136 144 140 145 122 106 82 88 81 75 84 88 82 82 76 67 50 34 19 23 36 35 26 19 23 33 28 3 359 3
247 174 188 214 236 249 116 210 277 273 173 137 134 140 144 132 133 135 138 132 138 141 130 130 125 112 96 102 91 84 70 70 60 61 55 32 24 14 29 32 31 16 18 3 22 359 360 359 350
268 187 195 178 238 96 137 156 27 66 119 134 142 138 129 127 128 133 141 140 138 137 128 135 121 109 104 113 96 79 65 66 71 51 47 47 14 352 42 17 25 7 17 3 356 12 12 357 345
320 331 162 51 185 233 18 260 174 153 144 138 136 134 137 133 127 122 127 124 124 131 112 109 124 123 128 131 121 129 94 97 83 60 36 37 13 4 8 336 21 12 359 338 4 31 352 345 329
351 24 348 84 38 122 109 294 235 172 155 141 138 139 144 143 138 124 104 87 118 118 108 113 114 105 98 132 126 127 91 94 76 59 50 38 18 359 6 357 34 16 353 332 9 340 353 325 321
84 34 62 92 346 354 88 293 70 109 105 115 127 132 133 128 119 116 122 122 111 121 82 108 116 96 92 132 116 116 108 98 72 64 42 28 18 355 360 2 25 24 354 351 15 328 338 313 313